Location: Chequamegon National Forest
(46.1070°N, 90.8420°W)
Time: 23:00:59
(UTC-05:00)

Amateur Radio Satellites - All Passes

Search period start: 30 September 2014 22:30
Search period end: 01 October 2014 22:30
Location: Chequamegon National Forest, 46.1070°N, 90.8420°W

Satellite Date Start Highest point End Downlink Frequencies (MHz)
Time Altitude Azimuth
FUNcube-1 30 Sep 22:31:14 22:35:47 89° 76° (ENE) 22:40:26 145.950 - 145.970 MHz USB
SO-50 30 Sep 22:37:23 22:39:32 13° 336° (NNW) 22:41:43 436.795 FM
UKube-1 30 Sep 22:38:22 22:41:58 25° 265° (W) 22:45:36 145.840 MHz, 145.915 MHz
KITSAT 1 30 Sep 22:39:29 22:44:46 18° 5° (N) 22:50:02 435.175 FM
Saudisat 1A 30 Sep 22:48:29 22:52:54 66° 51° (NE) 22:57:17 436.775 MHz
UOSAT-12 30 Sep 23:03:41 23:07:54 32° 318° (NW) 23:12:11 437.025 FM, 437.400 FM
ZACube-1 30 Sep 23:17:01 23:21:07 33° 264° (W) 23:25:18 437.345 MHz
AO-40 30 Sep 23:20:22 00:57:48 19° 221° (SW) 03:43:45 Beacon 2401.320
ISS 30 Sep 23:41:01 23:44:21 85° 333° (NNW) 23:47:42 145.800 FM
FUNcube-1 01 Oct 00:11:53 00:12:51 11° 274° (W) 00:13:49 145.950 - 145.970 MHz USB
Saudisat 1A 01 Oct 00:29:13 00:31:59 16° 249° (WSW) 00:34:44 436.775 MHz
KITSAT 1 01 Oct 00:36:02 00:43:08 32° 34° (NE) 00:50:12 435.175 FM
UOSAT-12 01 Oct 00:48:19 00:49:31 11° 341° (NNW) 00:50:44 437.025 FM, 437.400 FM
ISS 01 Oct 01:18:18 01:21:21 32° 352° (N) 01:24:24 145.800 FM
Oscar 19 01 Oct 01:19:16 01:21:35 13° 87° (E) 01:23:53 437.125 CW, 437.150 USB
Oscar 16 01 Oct 01:58:38 02:03:11 31° 95° (E) 02:07:41 437.025 USB, Beacon 2401.1428
SO-50 01 Oct 02:02:30 02:05:05 14° 26° (NNE) 02:07:40 436.795 FM
AO-27 01 Oct 02:08:12 02:11:27 16° 90° (E) 02:14:40 436.795 MHz FM
AO-Echo 01 Oct 02:10:03 02:13:44 20° 92° (E) 02:17:29 ?
RS-15 01 Oct 02:13:35 02:23:50 47° 111° (ESE) 02:33:58 29.354 - 29.394 USB, Beacon 29.352 USB
JAS-1B 01 Oct 02:29:53 02:35:03 34° 97° (E) 02:40:29 435.800 - 435.900 CW/SSB
KITSAT 1 01 Oct 02:31:23 02:39:30 86° 238° (WSW) 02:47:35 435.175 FM
Gurwin Techsat 1B 01 Oct 02:32:25 02:35:03 14° 87° (E) 02:37:41 435.225 FM
ISS 01 Oct 02:55:27 02:58:35 36° 13° (NNE) 03:01:42 145.800 FM
Oscar 19 01 Oct 02:56:27 03:01:38 86° 285° (WNW) 03:06:45 437.125 CW, 437.150 USB
TMSAT-1 01 Oct 03:00:23 03:04:02 19° 90° (E) 03:07:40 436.925 FM
ITAMSAT 1 01 Oct 03:07:51 03:12:59 53° 100° (E) 03:18:05 435.822 SSB
Uribyol 2 01 Oct 03:08:45 03:13:56 58° 101° (E) 03:19:04 436.500 FM
Oscar 16 01 Oct 03:37:51 03:42:36 38° 293° (WNW) 03:47:19 437.025 USB, Beacon 2401.1428
SO-50 01 Oct 03:42:02 03:46:44 51° 48° (NE) 03:51:29 436.795 FM
AO-27 01 Oct 03:46:17 03:51:30 72° 287° (WNW) 03:56:42 436.795 MHz FM
AO-Echo 01 Oct 03:47:56 03:52:49 56° 289° (WNW) 03:57:50 ?
AO-7 01 Oct 03:50:08 03:55:05 17° 87° (E) 04:00:00 29.400 - 29.500 MHz
Gurwin Techsat 1B 01 Oct 04:10:22 04:15:43 85° 285° (WNW) 04:21:02 435.225 FM
UOSAT-12 01 Oct 04:10:56 04:14:09 18° 31° (NNE) 04:17:21 437.025 FM, 437.400 FM
JAS-1B 01 Oct 04:20:41 04:25:49 37° 295° (WNW) 04:31:12 435.800 - 435.900 CW/SSB
OPAL 01 Oct 04:24:53 04:29:54 51° 67° (ENE) 04:34:57 ?
RS-15 01 Oct 04:25:04 04:35:54 61° 316° (NW) 04:46:46 29.354 - 29.394 USB, Beacon 29.352 USB
KITSAT 1 01 Oct 04:28:22 04:33:46 20° 258° (WSW) 04:39:10 435.175 FM
ISS 01 Oct 04:32:08 04:35:27 65° 211° (SSW) 04:38:44 145.800 FM
Oscar 19 01 Oct 04:37:37 04:40:12 14° 304° (NW) 04:42:46 437.125 CW, 437.150 USB
TMSAT-1 01 Oct 04:39:10 04:44:26 65° 288° (WNW) 04:49:41 436.925 FM
MaSat-1 01 Oct 04:43:05 04:44:48 12° 102° (ESE) 04:46:29 437.345 MHz
ITAMSAT 1 01 Oct 04:48:02 04:52:08 24° 299° (WNW) 04:56:14 435.822 SSB
Uribyol 2 01 Oct 04:49:02 04:53:00 22° 299° (WNW) 04:56:58 436.500 FM
Uosat F 01 Oct 05:09:17 05:14:07 44° 99° (E) 05:18:55 435.120 FM
JAS-2 01 Oct 05:10:08 05:13:34 14° 87° (E) 05:17:08 435.800 - 435.900 CW/SSB, 435.910 FM
SO-50 01 Oct 05:23:06 05:27:03 25° 246° (WSW) 05:31:01 436.795 FM
AO-27 01 Oct 05:28:09 05:30:07 12° 306° (NW) 05:32:04 436.795 MHz FM
STRAND 1 01 Oct 05:28:39 05:31:46 17° 58° (ENE) 05:34:54 ?
AO-7 01 Oct 05:40:51 05:49:12 78° 107° (ESE) 05:57:30 29.400 - 29.500 MHz
UOSAT-12 01 Oct 05:50:21 05:55:07 75° 52° (NE) 05:59:47 437.025 FM, 437.400 FM
Gurwin Techsat 1B 01 Oct 05:52:07 05:54:54 15° 304° (NW) 05:57:41 435.225 FM
Hamsat 01 Oct 06:00:43 06:03:37 18° 91° (E) 06:06:30 145.90 MHz
OPAL 01 Oct 06:04:52 06:09:02 24° 265° (W) 06:13:14 ?
ISS 01 Oct 06:10:54 06:11:35 11° 229° (SW) 06:12:15 145.800 FM
MaSat-1 01 Oct 06:15:48 06:20:40 86° 118° (ESE) 06:25:15 437.345 MHz
TMSAT-1 01 Oct 06:21:54 06:23:21 11° 307° (NW) 06:24:48 436.925 FM
RS-15 01 Oct 06:41:41 06:51:02 31° 347° (NNW) 07:00:31 29.354 - 29.394 USB, Beacon 29.352 USB
Uosat F 01 Oct 06:48:32 06:52:41 27° 297° (WNW) 06:56:51 435.120 FM
JAS-2 01 Oct 06:52:50 06:59:26 75° 103° (ESE) 07:06:50 435.800 - 435.900 CW/SSB, 435.910 FM
STRAND 1 01 Oct 07:05:14 07:10:20 79° 256° (WSW) 07:15:29 ?
UOSAT-12 01 Oct 07:31:52 07:34:40 16° 250° (WSW) 07:37:27 437.025 FM, 437.400 FM
AO-7 01 Oct 07:34:28 07:41:15 30° 308° (NW) 07:48:03 29.400 - 29.500 MHz
Hamsat 01 Oct 07:35:48 07:39:49 44° 289° (WNW) 07:43:48 145.90 MHz
MaSat-1 01 Oct 07:54:37 07:57:41 17° 315° (NW) 08:00:36 437.345 MHz
SO-67 01 Oct 08:09:38 08:13:05 67° 101° (E) 08:16:30 435.3500 MHz FM
PCSat 01 Oct 08:29:18 08:31:18 12° 102° (ESE) 08:33:18 145.825 MHz
JAS-2 01 Oct 08:38:55 08:44:01 25° 300° (WNW) 08:49:32 435.800 - 435.900 CW/SSB, 435.910 FM
STRAND 1 01 Oct 08:49:53 08:50:22 10° 274° (W) 08:50:51 ?
RS-15 01 Oct 08:57:43 09:07:32 35° 22° (NNE) 09:17:34 29.354 - 29.394 USB, Beacon 29.352 USB
Sapphire 01 Oct 09:43:08 09:48:17 47° 115° (ESE) 09:53:29 437.095 MHz 1200 baud AX-25 AFSK
HO-68 01 Oct 09:50:38 09:57:38 52° 101° (E) 10:04:35 435.675 MHz FM
Oscar 11 01 Oct 09:54:17 09:57:20 19° 92° (E) 10:00:22 145.825 FM, Beacon 2401.500 USB
PCSat 01 Oct 10:08:24 10:13:48 80° 120° (ESE) 10:19:15 145.825 MHz
FUNcube-1 01 Oct 10:19:20 10:22:04 16° 89° (E) 10:24:45 145.950 - 145.970 MHz USB
UKube-1 01 Oct 10:23:09 10:27:20 43° 99° (E) 10:31:30 145.840 MHz, 145.915 MHz
ZACube-1 01 Oct 11:03:24 11:07:46 42° 98° (E) 11:12:01 437.345 MHz
RS-15 01 Oct 11:10:46 11:21:55 78° 51° (NE) 11:33:29 29.354 - 29.394 USB, Beacon 29.352 USB
Sapphire 01 Oct 11:27:01 11:31:53 33° 315° (NW) 11:36:48 437.095 MHz 1200 baud AX-25 AFSK
Oscar 11 01 Oct 11:29:37 11:33:46 46° 289° (WNW) 11:37:53 145.825 FM, Beacon 2401.500 USB
HO-68 01 Oct 11:38:42 11:45:08 37° 300° (WNW) 11:51:33 435.675 MHz FM
PCSat 01 Oct 11:53:36 11:57:51 23° 321° (NW) 12:02:08 145.825 MHz
FUNcube-1 01 Oct 11:54:22 11:58:53 61° 287° (WNW) 12:03:17 145.950 - 145.970 MHz USB
UKube-1 01 Oct 11:59:58 12:03:16 21° 297° (WNW) 12:06:35 145.840 MHz, 145.915 MHz
Oscar 19 01 Oct 12:37:48 12:42:03 26° 63° (ENE) 12:46:18 437.125 CW, 437.150 USB
ZACube-1 01 Oct 12:40:19 12:43:55 23° 296° (WNW) 12:47:28 437.345 MHz
ITAMSAT 1 01 Oct 12:51:38 12:54:47 17° 57° (ENE) 12:57:58 435.822 SSB
Uribyol 2 01 Oct 12:52:10 12:55:32 18° 58° (ENE) 12:58:55 436.500 FM
Sapphire 01 Oct 13:15:49 13:17:05 11° 339° (NNW) 13:18:22 437.095 MHz 1200 baud AX-25 AFSK
JAS-1B 01 Oct 13:17:26 13:24:15 43° 67° (ENE) 13:30:07 435.800 - 435.900 CW/SSB
Oscar 16 01 Oct 13:17:53 13:22:57 57° 71° (ENE) 13:28:04 437.025 USB, Beacon 2401.1428
RS-15 01 Oct 13:23:53 13:33:20 34° 254° (WSW) 13:43:08 29.354 - 29.394 USB, Beacon 29.352 USB
AO-Echo 01 Oct 13:25:40 13:29:48 32° 66° (ENE) 13:33:59 ?
AO-27 01 Oct 13:28:24 13:32:58 33° 65° (ENE) 13:37:34 436.795 MHz FM
Gurwin Techsat 1B 01 Oct 13:55:17 13:59:47 29° 64° (ENE) 14:04:18 435.225 FM
Oscar 19 01 Oct 14:16:08 14:21:08 47° 261° (W) 14:26:09 437.125 CW, 437.150 USB
TMSAT-1 01 Oct 14:23:18 14:28:06 37° 66° (ENE) 14:32:56 436.925 FM
ITAMSAT 1 01 Oct 14:28:27 14:33:38 81° 256° (WSW) 14:38:52 435.822 SSB
MaSat-1 01 Oct 14:29:05 14:32:13 28° 51° (NE) 14:34:58 437.345 MHz
Uribyol 2 01 Oct 14:29:14 14:34:25 75° 257° (WSW) 14:39:40 436.500 FM
Saudisat 1A 01 Oct 14:36:14 14:40:36 69° 123° (ESE) 14:45:00 436.775 MHz
Uosat F 01 Oct 14:49:56 14:52:01 13° 55° (NE) 14:54:07 435.120 FM
AO-7 01 Oct 14:51:26 14:58:33 33° 54° (NE) 15:05:39 29.400 - 29.500 MHz
Oscar 16 01 Oct 14:58:52 15:02:41 21° 269° (W) 15:06:31 437.025 USB, Beacon 2401.1428
AO-Echo 01 Oct 15:04:25 15:08:34 31° 264° (W) 15:12:47 ?
AO-27 01 Oct 15:07:39 15:12:25 37° 263° (W) 15:17:14 436.795 MHz FM
JAS-1B 01 Oct 15:08:06 15:14:58 38° 262° (W) 15:20:53 435.800 - 435.900 CW/SSB
Gurwin Techsat 1B 01 Oct 15:34:32 15:39:34 43° 262° (W) 15:44:38 435.225 FM
TMSAT-1 01 Oct 16:03:18 16:08:03 33° 264° (W) 16:12:49 436.925 FM
MaSat-1 01 Oct 16:06:02 16:08:24 18° 255° (WSW) 16:10:33 437.345 MHz
ITAMSAT 1 01 Oct 16:12:46 16:13:58 11° 274° (W) 16:15:10 435.822 SSB
Saudisat 1A 01 Oct 16:17:13 16:20:37 21° 324° (NW) 16:24:03 436.775 MHz
Uosat F 01 Oct 16:25:00 16:29:59 80° 74° (ENE) 16:35:02 435.120 FM
AO-7 01 Oct 16:42:34 16:50:49 68° 255° (WSW) 16:59:06 29.400 - 29.500 MHz
Oscar 10/S400 01 Oct 16:45:34 17:02:32 39° 154° (SSE) 17:38:30 145.825 - 145.975 CW/USB, Beacon 145.810 USB
Sapphire 01 Oct 16:45:52 16:49:21 17° 32° (NNE) 16:52:49 437.095 MHz 1200 baud AX-25 AFSK
Hamsat 01 Oct 16:56:38 16:59:44 20° 64° (ENE) 17:02:50 145.90 MHz
KITSAT 1 01 Oct 17:02:10 17:09:48 48° 113° (ESE) 17:17:27 435.175 FM
JAS-2 01 Oct 17:09:11 17:13:57 38° 65° (ENE) 17:19:00 435.800 - 435.900 CW/SSB, 435.910 FM
PCSat 01 Oct 17:11:04 17:15:25 24° 39° (NE) 17:19:44 145.825 MHz
Uosat F 01 Oct 18:06:55 18:09:24 14° 271° (W) 18:11:54 435.120 FM
OPAL 01 Oct 18:10:55 18:16:03 74° 105° (ESE) 18:21:04 ?
Sapphire 01 Oct 18:28:24 18:33:50 66° 55° (NE) 18:39:14 437.095 MHz 1200 baud AX-25 AFSK
Hamsat 01 Oct 18:31:13 18:35:23 46° 261° (W) 18:39:33 145.90 MHz
HO-68 01 Oct 18:39:48 18:42:24 12° 43° (NE) 18:45:01 435.675 MHz FM
AO-7 01 Oct 18:41:22 18:45:09 14° 275° (W) 18:48:58 29.400 - 29.500 MHz
SO-67 01 Oct 18:44:56 18:48:01 32° 71° (ENE) 18:51:08 435.3500 MHz FM
PCSat 01 Oct 18:53:59 18:59:26 77° 240° (WSW) 19:04:50 145.825 MHz
JAS-2 01 Oct 18:54:40 18:59:12 30° 266° (W) 19:03:59 435.800 - 435.900 CW/SSB, 435.910 FM
KITSAT 1 01 Oct 18:57:26 19:05:14 50° 315° (NW) 19:13:04 435.175 FM
STRAND 1 01 Oct 19:13:38 19:18:07 29° 95° (E) 19:22:34 ?
SO-50 01 Oct 19:39:31 19:43:56 60° 122° (ESE) 19:48:30 436.795 FM
OPAL 01 Oct 19:50:58 19:54:21 18° 304° (NW) 19:57:43 ?
UOSAT-12 01 Oct 20:06:56 20:08:39 12° 107° (ESE) 20:10:23 437.025 FM, 437.400 FM
Sapphire 01 Oct 20:12:48 20:16:45 21° 253° (WSW) 20:20:41 437.095 MHz 1200 baud AX-25 AFSK
SO-67 01 Oct 20:18:50 20:21:08 17° 268° (W) 20:23:27 435.3500 MHz FM
HO-68 01 Oct 20:21:41 20:28:29 50° 64° (ENE) 20:35:21 435.675 MHz FM
PCSat 01 Oct 20:40:11 20:41:54 12° 258° (WSW) 20:43:37 145.825 MHz
Oscar 11 01 Oct 20:51:52 20:55:10 21° 64° (ENE) 20:58:28 145.825 FM, Beacon 2401.500 USB
STRAND 1 01 Oct 20:52:36 20:57:24 40° 293° (WNW) 21:02:10 ?
KITSAT 1 01 Oct 20:56:57 21:02:50 21° 342° (NNW) 21:08:44 435.175 FM
FUNcube-1 01 Oct 21:18:08 21:21:18 19° 62° (ENE) 21:24:30 145.950 - 145.970 MHz USB
UKube-1 01 Oct 21:20:55 21:25:08 53° 71° (ENE) 21:29:23 145.840 MHz, 145.915 MHz
SO-50 01 Oct 21:21:07 21:24:52 25° 323° (NW) 21:28:43 436.795 FM
Saudisat 1A 01 Oct 21:21:41 21:25:05 21° 36° (NE) 21:28:29 436.775 MHz
UOSAT-12 01 Oct 21:43:23 21:48:02 86° 126° (SE) 21:52:47 437.025 FM, 437.400 FM
ZACube-1 01 Oct 22:01:59 22:06:21 47° 71° (ENE) 22:10:48 437.345 MHz
HO-68 01 Oct 22:09:56 22:16:23 36° 264° (W) 22:22:54 435.675 MHz FM
